Wind_Speed
52 53 55 58 60 61 60 59 61 63 65 67 69 71 72 75 78 80 81 82 84 84 82 82 81 80 82 83 82 84 85 86 86 85 84 83 82 80 77 75 72 69 66 64 64 63 63 62 63 66 66 64 62 59 57 54 51 50 50 49 48 48 46 44 45 45 43 41 39 38 38 38 38 38 38 39 40 42 42 41 39 38 37 36 37 37
51 51 54 57 58 59 59 60 62 63 64 65 66 68 70 73 76 78 79 80 82 81 80 81 79 79 82 83 82 84 86 85 85 84 83 84 83 80 77 75 73 70 67 65 64 62 61 60 60 63 65 64 62 60 58 55 51 51 50 49 48 48 45 45 46 44 42 40 38 38 38 39 38 39 39 40 41 42 41 39 37 37 37 37 37 37
48 50 53 55 55 56 58 59 61 62 62 63 64 66 69 72 75 76 77 78 79 78 77 79 78 78 81 82 82 84 85 85 86 85 84 85 84 80 77 75 73 71 68 66 63 60 59 58 57 60 62 63 63 62 59 55 52 51 50 49 49 47 45 46 46 44 41 40 39 39 39 39 39 39 40 41 41 39 38 38 37 37 37 37 37 37
45 48 49 50 51 53 54 56 57 59 60 61 63 65 68 71 73 74 75 75 75 74 75 77 77 77 79 81 81 82 84 85 87 86 85 86 84 80 77 74 72 71 69 66 62 59 58 56 56 58 60 62 63 62 58 54 52 51 50 50 49 46 45 46 45 43 41 40 39 40 39 39 39 40 41 40 39 37 36 38 37 37 37 36 36 36
43 46 46 46 47 48 50 52 54 56 57 58 61 64 68 71 72 72 72 71 71 71 73 75 76 75 78 80 81 82 86 87 87 86 85 86 84 81 78 75 72 71 70 66 62 59 56 55 55 57 58 61 62 61 57 53 53 53 51 51 49 45 44 45 44 42 41 40 40 39 39 39 40 40 40 38 37 36 36 37 37 36 36 36 36 35
43 44 43 42 43 44 45 48 50 51 52 55 58 63 67 71 70 68 69 68 68 68 71 74 72 72 77 81 82 85 88 88 86 86 85 84 84 82 79 75 73 72 70 66 63 59 56 54 56 56 57 59 60 59 55 54 55 54 53 52 47 44 44 45 43 42 41 40 39 39 39 39 40 39 37 35 36 36 37 36 35 35 35 35 35 35
41 41 40 40 41 41 42 44 46 46 47 50 56 62 65 67 65 65 66 66 65 65 68 70 68 72 79 82 83 86 88 87 87 86 85 85 84 82 79 76 74 72 70 67 63 59 56 55 55 56 57 57 59 58 55 55 56 55 54 50 45 44 45 45 43 42 42 40 39 39 39 39 39 37 35 35 36 36 35 35 35 35 35 35 34 33
37 37 37 37 37 38 39 41 42 41 43 47 54 58 58 60 61 62 64 64 63 63 65 66 67 72 78 81 84 87 88 89 88 87 85 85 84 82 79 77 74 72 70 67 63 59 57 55 55 55 56 57 58 56 55 56 57 56 54 49 45 44 44 44 44 43 41 40 39 39 39 38 37 35 34 35 36 35 34 34 34 34 34 34 33 31
34 34 35 35 34 35 37 38 38 39 41 45 49 49 50 54 58 61 62 62 62 61 60 62 66 71 76 81 84 85 86 88 86 85 84 84 83 81 80 78 75 72 70 67 62 59 57 56 55 55 56 57 57 55 55 56 57 56 52 47 45 45 44 45 44 42 41 39 39 38 38 37 34 33 34 35 35 34 34 34 34 34 33 32 31 29
30 32 33 32 32 33 34 35 36 37 39 41 42 43 46 50 54 58 59 60 58 55 55 59 64 70 76 81 83 84 85 85 83 83 83 83 83 82 81 78 75 73 70 67 63 60 58 57 55 56 58 57 54 54 55 57 56 53 48 45 44 44 45 45 43 42 40 39 38 38 37 34 32 32 34 34 33 33 33 33 33 33 32 31 29 27
26 28 29 30 31 31 32 33 34 35 35 36 38 41 43 46 51 56 57 56 52 50 54 59 65 72 76 79 82 84 84 84 84 84 84 84 84 83 81 78 75 73 70 68 64 61 59 57 55 56 56 55 54 54 56 56 53 48 45 43 43 43 44 44 42 41 39 38 38 36 34 32 32 33 33 33 32 32 32 32 33 32 31 29 28 25
22 23 25 27 29 29 30 30 30 32 32 32 36 39 40 44 48 52 53 50 48 52 58 62 67 72 74 78 81 83 85 88 88 86 85 85 84 83 81 78 75 73 71 68 65 62 59 56 54 54 54 53 54 54 55 53 49 44 42 42 42 43 44 43 42 40 38 38 37 35 32 31 32 32 32 31 31 31 32 32 32 31 29 28 25 22
18 19 21 23 26 27 26 25 26 29 30 31 33 35 37 41 44 47 47 46 51 58 62 64 68 70 73 78 81 84 87 89 88 86 85 85 84 83 80 78 76 73 71 69 66 62 58 55 53 52 52 53 53 54 54 50 45 41 41 41 43 43 43 43 41 39 38 37 35 33 31 31 32 31 31 31 30 31 31 31 31 30 28 25 22 19
14 16 18 19 22 23 21 21 23 26 27 26 27 30 34 37 40 42 42 47 55 60 61 63 67 70 75 79 81 83 85 84 83 83 83 84 83 82 80 77 75 73 71 69 65 61 58 55 53 51 51 52 53 53 51 46 41 40 40 42 43 43 43 43 40 37 37 36 33 32 31 31 31 30 30 30 30 31 31 31 29 28 25 22 18 17
12 13 14 14 16 18 17 18 21 23 22 21 23 28 33 36 39 41 44 51 57 59 61 65 67 70 75 77 80 83 84 83 83 82 82 83 82 81 80 77 75 73 71 68 64 60 57 55 53 52 52 53 54 52 47 42 39 39 41 44 43 43 43 42 38 37 36 35 32 32 31 31 30 29 29 29 30 30 30 29 28 25 22 19 17 19
11 10 10 10 11 13 14 16 18 19 19 21 26 30 34 38 42 45 48 53 55 57 61 64 66 70 75 79 83 85 85 85 85 83 82 82 82 81 80 77 75 73 71 67 63 59 57 55 54 53 54 54 53 48 43 40 40 41 43 43 43 43 43 39 36 36 35 33 32 32 31 30 28 28 29 29 29 29 29 28 26 23 19 17 18 20
8 7 6 6 8 10 12 14 15 17 19 23 28 32 36 40 44 46 48 50 52 56 60 64 69 74 78 82 85 84 83 84 85 84 83 83 82 81 79 77 75 73 70 65 61 59 57 55 54 54 54 54 50 45 42 41 42 42 43 42 42 43 41 37 36 35 34 33 32 31 31 29 27 27 28 28 28 28 27 26 23 21 18 18 19 19
5 4 3 5 7 9 12 14 16 19 22 25 29 32 36 39 42 44 45 48 53 58 62 66 71 75 79 82 83 82 82 83 85 84 83 83 82 80 78 76 74 72 68 64 61 59 57 56 55 54 53 52 48 45 44 44 43 42 41 41 42 42 39 36 35 34 33 33 32 31 30 28 27 27 28 28 27 27 25 23 22 19 18 19 19 18
2 1 3 6 8 10 13 16 19 23 26 27 29 32 35 38 41 44 48 53 58 63 65 68 71 75 79 81 82 82 83 84 85 84 83 82 81 79 77 75 73 70 66 63 61 59 57 56 55 54 53 51 48 46 45 44 43 42 40 41 42 40 37 35 34 33 33 33 31 31 29 27 27 27 27 27 26 24 23 22 20 18 18 19 18 18
2 2 4 6 8 10 14 17 20 24 27 29 31 34 37 40 44 48 53 58 62 66 68 69 72 76 79 81 82 82 83 84 85 84 83 81 80 79 77 74 71 68 64 62 61 59 57 56 55 54 53 50 47 45 44 44 43 41 40 42 42 38 36 35 34 34 34 33 31 30 28 27 27 27 26 25 24 22 22 21 19 18 18 18 17 18
3 3 4 5 8 11 15 18 21 24 27 30 33 35 39 43 47 52 58 62 64 66 67 69 73 77 80 82 82 82 83 84 84 83 81 80 79 78 76 73 69 65 63 61 60 58 58 57 56 53 50 48 46 45 45 44 43 41 41 42 40 37 36 35 34 34 34 32 30 28 27 27 27 25 24 24 22 21 21 20 18 17 18 18 17 17
6 6 5 6 9 12 15 19 21 24 27 31 34 37 41 46 50 55 60 63 63 62 64 68 73 77 79 81 81 81 82 83 83 82 80 79 78 76 73 71 68 65 63 61 59 59 58 57 54 50 47 46 45 44 45 44 42 41 42 42 39 37 36 35 34 34 33 31 29 27 26 26 25 23 23 22 20 20 20 19 18 17 17 17 17 17
9 7 7 8 11 14 17 21 23 26 29 32 35 40 45 50 53 56 59 61 61 61 64 68 72 75 77 78 79 80 81 82 81 80 78 77 76 74 72 69 67 65 63 61 60 59 57 56 52 48 46 46 45 44 44 43 42 42 43 40 38 36 35 35 34 33 32 30 28 26 26 24 23 23 23 21 19 19 20 18 17 17 17 17 17 17
10 9 10 12 14 17 20 24 27 29 30 33 35 39 44 48 52 55 57 58 59 60 64 67 70 73 75 75 77 79 79 80 79 78 77 75 74 72 70 68 66 64 63 61 60 58 57 55 50 47 46 46 45 44 43 42 43 43 42 39 38 37 35 34 33 33 31 29 27 26 25 24 24 24 22 19 18 19 19 17 17 17 17 17 17 17
11 11 14 14 16 20 23 25 28 30 32 35 37 39 42 46 49 50 51 54 57 60 63 66 69 72 73 73 74 76 76 76 75 75 75 74 73 71 69 67 65 64 62 61 59 58 56 52 47 45 45 45 45 43 43 43 44 44 41 39 38 37 35 34 33 32 31 29 27 26 25 25 24 23 21 18 18 19 18 16 16 16 17 17 17 17
13 15 18 17 17 22 24 27 30 33 35 37 39 41 43 45 46 48 50 53 57 59 61 64 66 71 73 73 73 73 74 74 72 71 71 71 71 69 68 66 65 63 61 60 59 57 53 48 45 45 45 45 44 43 43 45 45 43 41 39 38 36 35 34 33 32 31 29 27 25 25 25 23 22 20 18 18 19 17 15 15 16 16 16 16 16
16 18 20 20 21 25 27 29 33 36 38 40 42 44 46 47 49 51 52 54 54 55 57 59 60 66 72 74 73 73 73 73 70 68 68 68 68 67 67 66 65 63 62 60 58 55 51 47 45 45 45 44 43 43 44 46 45 42 40 39 38 36 35 34 33 32 31 29 26 25 24 24 22 21 19 18 18 18 16 15 15 15 14 14 15 15
19 21 23 24 26 28 29 32 35 38 42 46 47 48 50 51 52 52 53 54 53 53 55 56 56 61 69 72 72 71 71 71 69 68 67 65 65 66 65 65 64 63 62 60 57 53 49 47 46 45 44 43 43 43 45 46 44 42 41 39 37 35 35 34 33 32 31 28 26 25 24 23 22 21 19 18 18 18 16 15 15 14 14 14 15 16
22 24 26 28 29 30 33 37 40 44 48 51 53 54 55 56 55 55 55 56 55 54 54 55 56 58 63 67 68 69 69 69 69 67 66 65 65 65 65 64 63 62 60 58 54 51 48 46 46 45 43 43 43 44 45 45 43 41 40 38 37 36 36 35 33 32 30 28 26 24 23 22 22 21 20 19 19 17 16 16 15 14 15 15 16 17
23 26 29 31 33 34 37 42 47 51 54 57 59 59 59 59 59 58 57 57 58 57 54 53 54 57 62 65 66 67 68 68 68 68 67 67 66 66 65 64 63 61 58 55 52 49 47 46 45 44 43 43 44 44 45 45 43 42 40 39 38 37 36 35 33 32 29 27 25 24 23 23 23 22 21 20 19 18 18 17 16 15 16 16 17 18
23 27 31 33 36 38 42 47 52 56 60 62 63 63 62 61 60 59 58 59 60 58 53 51 55 61 65 62 58 63 68 68 68 69 69 69 68 67 66 64 62 60 57 54 52 49 47 46 44 43 43 44 44 45 46 45 43 41 40 39 38 37 36 34 32 31 28 26 24 24 23 24 24 23 22 21 20 19 19 18 17 16 16 17 18 19
25 30 33 35 39 42 46 51 55 59 62 63 64 65 64 62 60 59 59 59 59 56 51 50 56 64 64 54 51 62 69 68 69 70 70 70 69 67 66 63 61 57 55 53 51 49 47 46 45 45 45 45 45 46 46 44 42 40 39 39 39 37 35 33 31 30 28 26 25 25 25 26 25 24 23 22 21 21 20 19 17 16 17 18 18 19
27 33 35 37 42 45 49 53 57 60 63 63 64 66 65 64 63 60 59 59 59 56 51 50 57 65 61 50 50 63 69 68 70 71 69 69 68 67 65 62 58 56 54 52 50 48 47 46 46 46 45 45 45 46 45 44 42 41 40 40 39 37 35 33 31 30 29 28 27 27 27 27 26 25 25 23 22 22 21 19 18 17 17 17 18 18
28 34 36 39 43 46 49 53 57 61 63 64 65 67 67 66 66 63 61 62 59 56 55 56 61 67 61 51 55 65 68 68 70 70 69 69 67 65 63 60 57 55 53 51 49 47 46 46 46 46 45 45 46 46 45 43 41 41 41 40 39 37 34 33 32 31 30 30 29 29 29 28 27 27 26 24 23 21 21 20 19 18 18 18 18 18
29 35 38 40 43 46 50 54 56 59 62 62 64 67 68 68 68 65 66 65 60 57 60 61 63 67 63 55 59 67 68 68 68 68 67 67 65 63 60 58 56 54 51 49 48 46 45 45 45 45 45 45 45 45 43 42 41 41 41 40 38 35 33 33 33 33 33 32 31 30 29 29 28 28 27 25 23 21 21 22 21 21 20 19 20 20
31 37 40 43 46 48 52 55 56 58 60 61 63 66 69 70 70 69 69 67 61 60 64 65 65 67 62 54 56 63 66 66 66 66 65 64 63 61 59 56 54 51 49 49 47 46 45 45 46 45 45 46 45 45 43 42 41 41 41 40 38 35 35 34 35 35 35 34 32 31 30 30 30 28 27 25 23 22 23 24 23 23 22 21 21 21
35 40 42 45 48 51 54 56 57 58 60 61 63 66 70 71 72 72 72 68 62 63 66 65 65 65 57 49 50 56 61 65 64 64 64 62 61 59 57 55 53 50 49 48 46 45 45 46 46 45 45 45 44 43 42 41 41 41 41 40 38 36 36 36 37 37 36 34 33 32 32 30 29 28 27 26 25 24 25 25 25 24 23 22 22 23
39 43 44 47 50 53 56 57 58 58 60 61 63 65 68 71 72 72 71 68 63 65 67 65 64 61 52 47 48 49 55 62 62 62 63 61 59 58 55 53 51 50 49 48 46 45 45 45 45 44 44 43 42 41 41 40 41 41 41 39 37 36 37 38 38 38 36 35 34 33 32 30 29 28 29 29 28 27 27 27 26 25 24 24 25 25
41 44 46 48 51 53 56 57 58 59 60 61 62 64 66 68 70 70 70 67 64 65 67 65 63 57 49 45 45 45 52 61 61 60 61 59 58 56 54 51 50 49 48 47 46 46 46 45 46 45 43 42 41 40 41 41 41 41 40 39 38 37 38 39 39 38 37 37 37 35 33 31 31 31 32 32 31 29 28 28 27 25 25 26 28 29
42 45 47 48 50 52 54 55 55 57 59 60 62 64 64 64 66 67 68 66 63 64 66 65 62 57 50 44 41 42 52 59 58 57 58 57 56 55 52 51 50 48 47 46 46 46 47 46 46 45 43 42 41 41 42 42 42 41 40 39 39 39 40 41 40 39 39 39 38 36 35 33 33 33 34 33 32 31 30 29 28 27 28 29 31 33
43 45 46 48 49 50 52 53 53 54 56 59 61 63 63 63 64 66 66 65 63 64 65 63 60 59 55 48 45 47 52 56 55 55 56 55 54 54 52 51 50 48 47 47 47 47 47 47 47 45 44 42 41 41 42 42 42 41 40 40 41 42 42 41 41 40 40 39 38 37 36 35 34 34 34 33 33 32 31 29 29 29 30 32 33 34
44 44 45 47 48 49 51 52 53 54 54 56 58 60 62 62 64 65 66 65 64 64 64 62 61 61 58 53 52 52 52 52 52 52 51 51 51 51 51 51 50 49 48 48 48 49 49 48 47 46 44 43 42 42 42 43 42 42 42 43 43 43 42 41 41 41 41 40 40 39 38 37 36 35 35 35 35 34 32 31 31 31 32 34 35 37
45 45 44 45 46 47 48 49 52 53 53 54 56 58 60 61 63 65 65 64 64 64 64 63 63 63 58 53 51 51 51 50 50 50 50 48 46 49 52 51 49 49 49 49 49 49 49 48 47 46 44 43 42 42 43 43 43 43 44 44 44 44 43 42 42 42 42 42 42 41 40 39 38 37 36 36 36 36 35 35 35 35 36 37 37 37
46 46 45 44 44 45 45 47 49 51 52 53 55 57 58 59 61 63 63 62 62 63 64 64 65 64 59 52 48 46 46 50 51 52 54 52 48 51 54 51 49 50 49 50 50 50 49 49 47 46 45 43 43 43 43 43 43 43 44 45 46 46 45 44 44 44 44 44 44 43 42 40 39 38 37 37 37 37 37 36 37 38 39 41 41 38
45 46 45 45 44 43 44 45 47 48 50 52 54 55 56 57 58 60 61 60 59 61 63 64 64 65 63 56 48 42 43 52 57 55 53 52 53 55 54 50 49 50 49 50 51 50 49 49 47 46 46 44 44 44 43 44 44 44 46 47 48 48 47 47 46 46 46 46 45 44 42 41 39 38 38 38 37 35 35 35 36 37 40 41 41 39
44 44 44 45 44 43 43 45 46 47 49 51 53 53 54 55 57 59 59 58 56 58 61 62 62 64 64 61 54 45 44 53 60 57 51 50 53 56 55 51 50 50 50 50 50 49 49 48 47 47 47 46 45 45 44 44 45 45 47 48 49 49 49 49 48 47 47 46 45 43 43 42 40 39 38 37 35 34 34 34 33 34 35 36 36 38
43 44 43 43 43 42 43 44 46 47 49 50 51 52 54 55 57 58 58 58 57 58 59 59 59 62 63 62 60 54 50 53 60 61 56 53 54 56 56 54 53 53 52 52 51 50 50 49 48 48 47 46 46 46 46 46 46 47 48 48 49 50 50 50 49 48 47 46 45 43 42 42 41 41 39 37 35 34 35 35 35 35 35 35 37 38
42 43 43 42 41 41 43 44 46 47 48 49 50 52 54 56 56 57 57 58 59 59 58 58 58 60 61 62 62 60 56 56 59 62 60 57 56 56 56 56 56 55 55 54 53 52 52 51 49 48 47 47 47 46 46 47 47 47 48 49 50 51 51 50 49 49 48 48 46 45 43 43 43 42 40 38 36 37 37 37 37 37 38 38 40 40
40 42 42 41 40 41 42 44 45 46 47 48 49 50 52 54 55 56 56 56 58 58 58 58 58 59 60 61 61 61 60 59 60 60 59 57 56 56 55 56 56 56 56 55 55 54 53 52 50 49 48 47 48 47 47 47 47 47 48 49 50 51 51 51 50 50 50 49 48 47 46 45 44 41 38 37 37 38 40 41 41 40 39 40 41 42
38 39 40 40 40 41 41 43 44 45 46 47 48 48 49 51 53 54 55 55 56 58 58 58 58 59 60 61 61 62 62 61 60 59 58 56 55 55 55 55 55 55 56 56 55 54 54 53 51 50 50 49 49 48 48 48 48 48 49 49 49 50 51 51 52 51 51 51 50 48 47 46 44 41 38 36 37 39 42 45 45 44 43 44 45 47
38 38 38 39 39 40 40 41 42 43 45 46 46 46 48 49 51 52 52 53 54 56 58 58 59 60 61 62 63 63 63 62 61 59 58 56 55 54 54 54 53 53 55 56 56 55 55 54 53 52 51 50 50 49 49 49 49 49 49 49 49 50 51 52 52 52 53 54 53 50 47 46 44 42 39 38 40 42 44 45 45 45 45 46 49 52
Wind_Direction
258 256 254 253 252 251 249 247 245 242 241 239 238 237 236 236 235 234 233 232 231 229 227 225 220 217 218 217 213 211 211 211 211 212 213 215 217 217 217 219 221 223 223 224 225 224 224 224 222 223 225 226 226 226 228 230 231 233 235 236 236 237 238 240 241 242 243 245 248 251 255 259 263 266 268 270 273 274 275 276 276 275 276 276 276 276
260 257 255 253 252 251 249 247 244 242 240 239 238 237 236 235 235 234 232 231 230 228 225 224 219 215 217 217 213 210 210 210 210 211 212 214 216 216 216 217 219 221 222 223 224 223 223 223 222 222 223 225 226 226 227 228 229 232 234 235 236 237 238 239 241 242 243 246 249 252 256 260 263 266 268 271 273 274 276 275 274 275 276 277 278 278
262 259 256 254 252 251 249 247 245 243 241 239 237 237 236 235 234 233 232 230 229 226 223 222 218 214 216 215 212 209 208 209 209 209 211 213 214 214 215 216 217 219 221 222 223 223 222 222 221 221 222 224 225 225 225 226 228 231 233 234 235 236 237 239 240 242 244 247 250 253 256 260 263 266 269 271 273 274 275 275 274 275 277 279 280 280
262 259 257 255 253 251 250 248 246 244 242 239 237 236 235 234 233 233 232 229 227 225 222 220 216 212 214 214 211 208 208 209 209 208 210 212 212 212 213 214 215 218 220 221 222 222 222 221 220 220 221 222 224 225 225 225 228 230 231 233 234 235 237 239 241 243 245 248 250 252 256 260 263 266 268 270 272 272 272 274 275 277 279 281 281 279
264 261 258 255 253 251 250 247 245 243 241 238 236 235 234 234 232 231 231 229 226 224 221 219 214 210 212 212 209 207 207 208 208 207 209 211 211 210 211 212 213 216 219 220 220 221 221 220 219 219 220 221 223 225 224 225 228 229 230 231 233 234 236 238 241 243 245 247 249 252 256 260 262 265 268 270 270 270 270 272 276 278 280 280 278 277
264 263 261 258 256 252 249 248 245 242 239 237 235 233 232 232 230 229 229 228 225 222 219 218 211 206 210 210 206 206 206 206 206 205 207 210 210 210 210 210 212 215 217 218 218 219 219 218 218 218 218 220 222 223 222 224 227 228 229 230 231 233 235 237 240 242 244 246 248 252 256 259 262 265 267 268 268 268 270 274 277 279 278 277 276 276
264 265 264 261 258 255 251 248 245 241 237 235 234 232 231 231 230 228 228 227 224 220 218 215 207 204 209 208 204 205 205 204 205 204 206 208 209 208 209 209 211 213 215 216 217 217 217 218 218 217 218 219 220 221 220 223 226 228 229 230 231 233 235 237 240 242 243 245 249 253 256 260 262 264 265 265 267 269 273 276 277 277 277 276 276 276
268 268 265 261 258 256 252 248 245 241 237 234 233 231 230 230 229 228 227 225 222 218 215 211 204 204 207 206 203 204 203 203 203 202 204 207 207 207 208 208 210 212 214 215 215 215 216 217 217 217 217 218 219 218 219 222 225 227 228 229 230 232 235 237 239 241 243 246 250 254 257 260 262 262 263 265 268 272 275 276 276 276 276 276 275 275
270 269 266 264 260 256 252 248 244 239 236 235 234 231 228 227 227 227 225 222 220 215 211 207 202 203 206 204 202 202 202 203 202 201 203 206 206 206 207 208 208 210 212 213 213 213 215 216 216 216 216 218 218 217 219 222 224 225 226 228 229 232 234 236 238 240 244 247 250 254 257 259 260 261 263 266 270 273 274 275 275 276 275 275 274 273
268 266 265 264 260 256 251 246 241 237 235 233 231 228 224 223 223 224 222 219 216 211 208 205 200 203 205 202 200 199 201 201 200 201 202 204 205 205 206 206 207 209 211 211 211 212 213 214 215 215 215 216 216 217 219 222 224 224 225 227 229 231 233 235 237 241 244 247 251 254 256 257 258 261 264 268 271 272 273 274 275 274 274 273 272 271
266 263 262 261 257 253 248 245 241 238 234 230 227 224 221 219 218 220 219 215 209 205 206 202 198 202 203 199 198 198 199 199 198 199 201 203 204 204 205 205 206 207 209 210 210 211 212 213 214 215 215 215 215 217 219 222 223 223 224 226 228 230 232 234 237 241 244 248 251 253 254 255 258 262 265 269 270 271 272 273 273 273 272 271 271 272
268 263 259 256 255 251 246 243 240 237 233 226 223 221 218 215 214 216 215 209 201 202 203 197 196 201 199 196 196 196 197 198 197 197 199 201 203 203 204 204 205 206 208 209 210 210 211 212 214 215 215 215 215 217 220 221 222 221 223 225 227 229 231 234 237 241 246 249 250 251 251 254 259 263 266 268 269 270 271 271 271 271 270 270 272 275
271 264 257 251 251 251 247 241 236 234 230 223 219 216 214 212 210 212 210 201 197 199 197 192 194 197 195 194 194 194 197 197 196 196 197 199 201 202 203 204 204 205 207 209 209 209 209 211 213 214 214 214 216 218 220 220 219 219 221 224 226 229 231 235 239 243 246 248 248 249 251 255 259 263 265 266 267 268 268 268 269 268 268 270 273 276
274 264 258 251 250 251 247 239 232 230 228 222 213 208 207 205 205 206 202 196 196 196 191 189 192 193 193 192 192 194 196 195 195 196 197 198 200 201 202 203 203 204 206 208 208 207 207 209 212 213 213 214 216 218 219 218 216 216 220 223 226 229 232 236 240 242 244 245 246 248 252 256 259 262 264 264 265 265 266 266 266 267 269 271 273 277
283 268 261 255 251 250 244 235 227 224 221 211 202 199 198 196 197 198 195 194 194 190 186 187 189 190 190 189 190 192 193 192 193 194 195 197 198 200 201 201 202 203 205 206 206 206 206 208 210 211 211 213 215 217 218 215 213 215 219 223 226 229 233 237 239 240 241 243 246 249 253 256 259 260 261 263 263 263 263 264 265 267 269 269 273 280
292 278 268 258 249 243 236 227 220 215 208 197 191 192 191 190 191 191 192 192 189 185 185 185 186 187 186 186 189 191 190 189 191 192 193 196 197 198 200 200 201 203 204 205 204 204 205 206 208 209 210 212 214 215 214 212 212 214 218 221 225 229 233 235 236 237 239 242 246 250 253 255 257 258 260 261 261 260 262 263 265 266 267 269 274 281
298 285 272 252 238 229 221 213 206 199 193 189 188 188 188 188 188 187 187 185 182 182 183 184 185 185 184 186 189 189 188 188 190 191 192 194 196 197 198 200 201 202 203 203 202 203 204 206 208 209 210 212 213 212 210 210 211 214 217 220 224 228 231 232 233 235 238 242 246 249 252 254 255 257 258 258 257 258 260 262 264 265 266 269 275 280
308 286 256 229 218 211 201 193 187 183 181 183 185 186 186 186 184 181 179 178 178 180 183 184 184 183 183 185 187 186 186 187 189 191 192 194 195 196 197 199 200 201 201 200 201 202 203 205 207 209 211 211 211 209 207 208 209 212 215 219 223 226 228 229 231 234 239 243 246 249 251 253 254 255 256 255 254 256 259 262 264 265 267 270 275 279
341 232 202 198 194 191 186 179 176 175 175 177 180 181 181 179 178 175 172 173 177 180 182 183 182 180 181 183 184 184 184 186 188 190 191 193 194 194 196 197 199 199 198 198 199 201 202 204 207 208 210 210 209 207 207 207 208 210 213 218 222 225 226 228 231 235 240 243 245 247 249 251 252 252 252 251 252 254 257 261 263 264 268 271 275 276
47 156 172 173 173 174 175 172 172 172 172 172 174 175 174 172 172 171 170 173 177 180 180 179 179 178 179 181 182 183 184 185 188 190 191 192 192 193 194 196 197 197 196 197 199 200 202 204 206 208 209 208 206 206 207 207 207 209 213 218 222 223 225 228 232 235 239 241 242 245 247 249 249 250 248 248 249 252 256 259 260 263 269 272 274 274
77 109 126 146 158 164 166 164 166 169 169 169 170 170 170 168 168 170 172 174 177 179 178 176 176 177 178 180 181 181 183 185 187 189 190 191 192 193 193 194 194 194 194 196 198 199 202 204 207 208 208 206 205 205 205 206 207 208 213 218 221 222 225 229 232 235 238 240 241 244 245 247 249 248 247 246 248 252 255 257 259 264 268 270 272 271
75 85 104 132 147 154 157 156 159 164 165 165 165 165 166 166 168 171 174 174 174 175 175 174 174 175 177 179 179 179 182 184 187 189 189 190 191 191 192 192 192 192 193 195 196 199 202 204 206 207 206 205 204 204 205 205 205 208 214 218 220 222 226 229 232 234 237 239 240 242 244 246 247 245 245 246 247 250 253 255 260 265 267 269 271 269
71 83 105 123 134 145 149 150 154 159 160 161 163 164 166 167 168 171 174 172 170 170 172 172 172 173 175 177 178 179 181 184 186 188 188 188 189 189 190 190 190 191 192 194 196 198 201 204 205 204 204 203 203 204 205 204 205 210 214 217 220 223 227 229 231 233 235 237 238 240 241 241 241 241 243 243 244 247 251 255 261 266 269 272 273 270
74 90 106 117 131 141 146 150 153 154 155 156 160 164 165 166 167 169 171 168 165 167 170 169 170 172 174 176 177 179 181 184 185 186 186 187 188 188 188 189 189 190 192 194 197 199 201 203 203 202 201 201 202 203 203 204 206 211 214 217 220 224 226 227 229 231 233 234 235 236 236 235 236 239 239 238 239 245 250 256 263 267 272 275 275 274
83 99 105 113 132 141 144 148 147 147 149 153 156 159 161 162 164 164 163 162 162 165 167 167 169 171 171 173 176 178 180 183 185 185 185 185 186 186 187 187 188 190 192 195 197 200 202 202 201 200 199 200 201 202 202 204 208 211 214 216 220 222 223 224 226 229 230 231 232 232 232 233 234 235 234 233 237 244 250 256 263 269 275 278 279 278
96 107 108 114 130 136 139 143 144 144 147 150 151 153 154 155 156 155 155 158 160 161 164 166 169 171 170 171 174 177 179 181 183 184 184 184 185 185 185 186 187 189 192 195 198 200 201 201 199 198 198 199 200 200 201 204 209 211 213 216 219 220 220 222 224 226 228 229 229 228 229 231 231 230 230 231 236 243 250 256 262 269 277 281 283 281
102 108 112 117 127 132 136 141 143 144 145 145 145 147 147 147 148 149 151 154 155 157 161 164 167 170 170 170 173 176 178 179 180 181 182 183 183 184 185 186 187 189 192 195 198 199 199 199 198 198 198 198 199 199 201 206 209 211 213 216 217 217 218 220 222 224 227 227 226 226 227 228 227 228 229 230 234 242 249 255 260 266 273 280 284 284
108 113 118 122 127 131 136 138 139 141 142 140 140 141 141 142 143 146 148 150 150 154 160 161 163 170 172 171 172 175 177 178 178 178 180 181 182 183 185 186 188 190 193 195 197 198 198 197 197 197 197 197 198 199 202 207 209 211 213 215 214 215 216 218 220 223 225 225 223 223 225 225 226 227 228 228 233 241 247 252 256 259 265 272 279 282
118 123 125 125 127 131 135 136 139 141 141 139 138 139 139 140 142 145 147 148 148 151 156 159 162 169 171 171 172 173 175 176 175 176 178 180 182 183 184 186 188 191 193 195 196 197 197 197 196 195 195 196 197 199 203 207 209 210 212 212 212 213 214 216 219 222 224 222 220 222 223 223 225 226 226 228 232 238 244 249 250 253 260 267 273 278
127 128 127 126 128 133 137 140 142 142 140 139 139 139 140 141 143 146 147 147 148 150 152 156 161 166 169 169 171 173 173 174 174 175 177 179 181 183 184 186 189 191 192 194 195 196 196 196 195 194 194 195 196 199 204 207 208 209 209 210 211 212 213 215 218 221 222 220 219 220 221 223 225 226 226 229 232 237 243 246 246 249 257 265 271 276
129 127 126 128 132 137 141 144 145 144 142 141 141 140 142 143 145 147 147 147 149 149 150 156 162 165 166 166 169 172 172 173 174 176 178 180 182 184 185 187 189 190 191 192 194 194 195 194 193 193 194 195 196 199 203 205 206 207 208 209 211 212 213 215 217 220 220 218 217 218 220 224 225 225 227 230 233 237 242 244 244 247 255 264 271 275
130 128 128 133 137 141 145 147 147 146 144 143 143 143 143 145 145 146 146 147 149 148 148 155 161 163 163 163 167 172 173 173 175 177 179 181 182 184 186 188 188 189 190 192 193 194 193 192 192 193 194 195 196 200 203 204 204 205 207 210 211 212 213 215 216 218 218 218 217 218 221 223 225 226 229 231 233 237 242 245 245 248 256 265 271 275
133 131 132 138 142 145 148 148 147 146 144 144 145 145 145 146 145 146 148 149 149 146 147 153 160 162 161 162 169 173 173 174 176 178 180 182 183 185 187 187 187 188 190 192 193 193 192 191 191 192 193 194 197 200 202 203 202 204 207 209 209 210 212 213 214 216 217 218 218 218 221 223 224 227 229 231 233 237 242 247 249 252 258 265 272 276
137 134 136 141 144 146 148 148 148 147 146 147 148 148 148 149 148 149 152 152 150 150 150 152 157 161 162 164 171 175 175 176 178 179 181 183 184 186 187 187 187 188 190 192 193 192 191 190 191 192 193 194 197 200 202 202 203 205 207 208 209 210 211 212 213 215 218 219 218 219 221 223 225 228 231 233 235 239 244 250 253 255 259 265 271 275
138 135 136 141 143 144 146 146 147 148 148 149 151 150 151 153 153 153 154 153 152 152 153 153 156 161 163 166 172 175 176 178 180 181 182 184 185 186 187 187 187 188 190 191 192 191 190 191 192 192 193 195 197 199 201 202 204 206 207 208 208 209 211 213 214 216 219 220 219 220 222 223 226 229 233 236 239 243 248 253 256 258 261 264 268 272
136 134 138 142 144 144 145 147 148 149 149 151 154 155 156 158 158 155 154 154 153 154 155 155 158 161 163 166 170 174 177 179 181 182 183 184 186 186 187 187 187 188 189 190 190 189 189 191 192 193 193 194 196 199 201 203 205 206 206 207 208 209 211 214 216 218 221 221 220 222 223 224 226 230 235 240 243 247 251 255 257 259 260 263 267 273
136 136 141 144 145 145 146 148 150 151 153 155 158 161 161 161 160 158 156 156 155 156 157 157 158 160 160 161 166 172 179 181 181 183 184 185 186 187 187 188 187 187 188 189 189 189 190 192 193 194 194 195 196 200 203 205 206 206 206 207 208 209 212 216 218 219 221 221 221 223 225 225 227 231 237 242 245 247 251 255 258 260 261 264 269 273
138 140 145 146 147 148 149 151 153 155 157 160 163 165 165 164 162 159 158 158 157 158 157 156 157 157 155 156 161 169 179 183 183 184 185 185 186 187 188 188 187 186 187 188 188 189 191 193 194 196 195 195 198 202 205 207 208 208 208 208 209 211 215 218 219 220 222 223 224 226 227 228 229 232 237 241 243 246 250 254 258 260 263 266 270 273
141 143 147 148 149 151 153 154 156 159 161 164 166 167 167 166 163 160 160 160 159 158 156 155 157 156 153 154 157 165 177 183 185 186 187 186 187 187 188 188 187 187 187 187 188 189 191 193 195 197 196 197 199 203 206 209 211 211 211 210 210 214 217 220 221 221 222 223 225 228 229 229 230 232 236 239 242 245 249 253 258 263 270 274 275 276
143 146 149 150 151 154 155 157 159 162 165 167 168 168 168 166 164 163 162 160 158 157 157 157 159 158 155 154 158 168 178 182 185 187 188 188 187 188 188 187 186 187 188 188 189 190 191 193 196 197 198 199 201 204 206 209 212 214 214 213 213 217 220 222 221 221 222 223 225 229 231 231 232 234 237 241 244 247 251 256 263 270 277 280 279 278
145 148 151 152 153 156 157 159 162 166 169 171 170 168 167 167 166 165 163 160 157 158 160 161 161 158 157 160 166 174 178 181 184 187 189 190 189 189 189 188 187 188 188 188 189 191 192 194 197 199 201 202 204 205 206 209 213 215 216 216 217 219 222 223 223 222 223 224 227 230 233 234 236 238 241 245 248 251 255 259 264 269 273 274 274 275
146 149 153 154 155 158 160 162 165 168 172 173 171 168 168 168 168 167 165 162 159 159 162 164 162 160 162 166 169 171 173 176 182 185 188 191 192 192 191 189 188 189 189 189 190 191 192 195 198 201 204 205 205 205 206 209 212 215 217 219 220 222 224 224 224 223 224 225 228 231 233 236 238 240 244 247 250 253 256 259 262 265 268 271 273 274
148 150 155 157 158 160 163 166 168 170 172 173 172 170 169 169 168 168 167 164 161 161 165 168 165 164 166 168 169 170 170 171 176 182 186 189 195 199 196 192 190 191 190 191 191 192 193 196 200 203 206 207 207 206 207 210 212 215 218 221 223 224 225 225 225 224 224 225 228 231 234 236 239 241 244 248 251 254 257 259 261 264 268 272 273 273
151 153 156 158 159 161 165 168 170 172 173 174 173 171 171 170 169 168 168 167 164 165 168 171 170 169 169 168 168 170 170 169 172 178 183 186 194 201 199 195 193 193 192 192 192 193 195 198 201 205 208 209 209 208 209 211 213 216 219 221 223 225 226 226 225 225 225 226 228 231 234 237 240 243 246 250 253 258 262 266 268 269 270 273 273 271
155 156 157 158 160 164 168 169 171 174 175 174 173 172 172 171 170 169 169 169 168 169 171 173 174 175 174 172 170 171 172 174 175 177 180 184 193 200 200 198 197 196 194 194 194 195 197 200 203 206 209 210 211 211 212 213 215 217 219 221 224 226 227 227 226 225 227 228 230 232 235 237 240 244 248 252 257 263 269 272 274 273 273 274 271 269
158 158 159 161 163 167 170 170 171 175 177 175 173 173 173 172 171 170 170 171 172 172 173 175 177 179 180 180 179 177 176 179 182 182 182 185 191 197 200 201 201 200 198 197 197 198 200 203 206 208 210 211 212 213 214 215 217 219 221 222 224 226 228 228 228 228 230 231 233 235 238 241 243 245 250 253 258 263 267 268 268 269 272 274 272 271
161 160 162 164 167 170 171 171 173 176 178 175 174 174 174 173 172 171 172 173 174 174 175 178 180 182 184 186 187 186 184 183 186 188 189 190 193 196 199 201 203 202 201 200 200 202 204 206 208 209 211 212 214 215 216 217 219 220 221 223 224 226 228 229 230 231 233 234 236 237 241 245 247 249 252 254 255 258 259 259 259 261 265 269 271 273
165 163 164 167 170 172 174 174 176 178 177 175 175 177 176 174 173 174 175 177 177 176 178 181 183 184 186 188 189 190 189 188 189 191 193 195 196 198 200 202 203 204 203 203 203 205 206 208 209 211 212 214 215 216 218 219 220 221 222 223 225 226 228 229 231 233 235 236 238 239 241 244 247 250 252 253 253 254 255 257 261 264 265 267 269 271
168 167 167 170 173 176 178 178 177 178 177 176 177 179 178 176 175 177 179 180 179 179 181 184 186 187 188 189 190 191 191 191 191 192 195 197 198 200 202 204 205 206 206 206 207 208 209 210 211 212 214 215 217 218 220 221 222 224 225 225 226 227 229 230 232 234 236 237 239 240 241 242 245 248 251 252 252 251 251 254 259 263 265 267 270 273
170 171 172 174 177 180 181 180 178 178 177 178 178 179 180 179 179 181 182 183 183 184 185 186 187 189 190 190 191 192 193 193 194 194 196 198 200 202 204 205 207 208 209 210 211 212 212 213 213 215 216 216 217 218 220 222 223 225 227 228 228 229 231 232 233 235 237 238 239 240 242 244 246 248 251 252 251 250 250 252 255 257 260 263 268 273
170 173 177 179 181 184 184 182 179 179 179 179 179 180 181 182 183 185 186 186 187 188 188 188 190 192 192 191 192 193 194 195 196 197 198 200 202 204 206 207 208 210 213 215 216 216 216 216 217 218 218 218 219 219 220 222 224 226 228 229 230 231 232 233 234 236 238 239 239 240 242 245 248 249 250 251 251 249 250 252 255 257 261 265 270 273
Height
10390 10391 10391 10389 10390 10392 10397 10402 10404 10406 10408 10412 10416 10421 10427 10430 10435 10439 10445 10452 10457 10467 10480 10491 10503 10515 10523 10531 10541 10550 10558 10567 10576 10585 10594 10602 10609 10617 10624 10633 10640 10647 10655 10659 10663 10670 10676 10683 10691 10696 10701 10707 10712 10717 10722 10726 10732 10734 10736 10739 10742 10744 10747 10750 10752 10753 10757 10759 10762 10764 10765 10766 10767 10768 10767 10767 10767 10766 10766 10765 10764 10764 10764 10764 10763 10763
10380 10382 10381 10379 10381 10384 10388 10390 10392 10395 10399 10403 10408 10413 10417 10421 10424 10428 10434 10441 10446 10457 10471 10480 10493 10506 10514 10523 10534 10543 10552 10561 10571 10580 10588 10594 10600 10610 10620 10627 10635 10642 10648 10653 10657 10665 10672 10679 10687 10692 10697 10702 10707 10712 10717 10722 10727 10730 10732 10735 10738 10741 10744 10747 10747 10750 10754 10756 10758 10760 10761 10762 10763 10763 10763 10763 10763 10762 10761 10760 10760 10760 10760 10759 10759 10759
10371 10370 10370 10370 10373 10375 10377 10379 10382 10386 10390 10395 10400 10404 10407 10410 10414 10418 10423 10430 10437 10449 10463 10471 10483 10497 10506 10515 10527 10536 10547 10556 10562 10571 10578 10583 10591 10604 10615 10623 10631 10637 10642 10647 10654 10662 10668 10676 10683 10688 10693 10697 10701 10706 10711 10717 10722 10725 10729 10732 10734 10738 10741 10743 10744 10748 10750 10753 10755 10756 10758 10759 10759 10759 10759 10759 10758 10758 10757 10756 10756 10756 10756 10756 10755 10756
10361 10359 10360 10362 10364 10366 10368 10371 10373 10376 10381 10386 10390 10394 10397 10399 10404 10409 10413 10421 10431 10443 10454 10461 10474 10489 10498 10507 10520 10532 10542 10547 10552 10563 10571 10575 10586 10600 10610 10618 10626 10632 10637 10643 10651 10658 10664 10672 10679 10684 10689 10693 10697 10701 10708 10714 10718 10721 10724 10727 10730 10734 10738 10739 10741 10744 10747 10750 10751 10752 10754 10755 10755 10755 10754 10755 10754 10754 10754 10752 10752 10752 10752 10752 10752 10752
10351 10349 10351 10353 10355 10358 10360 10362 10363 10366 10371 10376 10380 10383 10385 10387 10393 10400 10405 10414 10425 10435 10445 10452 10464 10481 10491 10499 10512 10522 10528 10534 10545 10558 10565 10571 10584 10595 10603 10612 10620 10626 10631 10639 10647 10653 10660 10668 10674 10679 10684 10688 10692 10697 10704 10709 10712 10715 10719 10722 10726 10731 10734 10735 10738 10741 10744 10746 10748 10749 10750 10751 10751 10750 10750 10751 10750 10750 10750 10749 10749 10749 10749 10749 10748 10748
10342 10341 10343 10346 10348 10350 10352 10353 10354 10357 10362 10366 10369 10371 10372 10375 10383 10393 10399 10406 10416 10427 10435 10442 10458 10476 10482 10488 10501 10509 10515 10527 10540 10551 10560 10568 10579 10589 10598 10608 10615 10620 10627 10634 10642 10649 10657 10664 10669 10674 10679 10684 10688 10693 10700 10704 10706 10710 10713 10717 10723 10728 10730 10731 10734 10738 10740 10742 10744 10746 10746 10747 10746 10746 10747 10747 10746 10746 10746 10746 10746 10746 10746 10745 10745 10744
10335 10335 10337 10339 10340 10342 10344 10344 10345 10349 10355 10358 10358 10358 10362 10369 10378 10388 10394 10399 10410 10420 10427 10437 10456 10467 10469 10478 10490 10498 10509 10523 10532 10543 10554 10561 10571 10583 10594 10603 10609 10615 10622 10629 10637 10645 10653 10659 10664 10669 10674 10679 10683 10688 10694 10698 10701 10705 10709 10715 10721 10724 10726 10728 10731 10734 10736 10739 10741 10741 10742 10742 10742 10742 10743 10743 10742 10742 10742 10743 10742 10742 10742 10742 10741 10740
10330 10330 10331 10332 10333 10335 10336 10337 10338 10343 10348 10349 10347 10351 10360 10368 10375 10381 10386 10393 10403 10411 10420 10433 10448 10455 10462 10473 10482 10491 10505 10513 10523 10537 10548 10555 10567 10580 10590 10597 10604 10611 10617 10625 10634 10642 10649 10654 10659 10665 10670 10673 10677 10682 10689 10694 10697 10701 10706 10713 10718 10720 10722 10724 10727 10730 10732 10735 10736 10737 10737 10737 10738 10739 10739 10739 10739 10739 10739 10739 10739 10739 10738 10738 10737 10737
10325 10325 10325 10326 10327 10328 10329 10330 10332 10336 10339 10340 10342 10350 10358 10362 10368 10372 10379 10387 10395 10405 10417 10429 10441 10450 10458 10466 10475 10489 10501 10509 10523 10537 10545 10554 10566 10576 10584 10592 10600 10606 10612 10621 10630 10637 10644 10649 10654 10659 10663 10667 10672 10680 10685 10688 10692 10697 10704 10711 10714 10717 10719 10720 10722 10726 10729 10731 10732 10732 10733 10733 10734 10735 10735 10735 10735 10736 10735 10735 10735 10735 10735 10734 10734 10734
10321 10320 10320 10321 10321 10322 10323 10324 10326 10329 10332 10335 10340 10346 10350 10355 10360 10365 10372 10380 10390 10405 10416 10425 10437 10444 10448 10458 10471 10484 10495 10509 10525 10534 10541 10551 10560 10570 10578 10586 10594 10601 10608 10617 10625 10632 10638 10643 10648 10653 10657 10662 10670 10676 10680 10683 10688 10696 10703 10708 10711 10713 10714 10716 10719 10722 10724 10726 10727 10728 10729 10730 10731 10732 10732 10732 10732 10732 10732 10732 10732 10731 10731 10731 10731 10731
10316 10316 10316 10315 10316 10316 10317 10319 10321 10324 10327 10332 10336 10339 10343 10349 10353 10357 10365 10375 10390 10404 10411 10418 10429 10432 10440 10455 10469 10481 10493 10505 10516 10525 10534 10544 10553 10564 10572 10581 10590 10597 10604 10613 10620 10627 10633 10638 10643 10648 10654 10661 10667 10672 10675 10681 10687 10695 10701 10705 10708 10709 10710 10712 10715 10717 10720 10721 10723 10724 10725 10727 10728 10728 10729 10729 10729 10729 10729 10729 10728 10728 10728 10728 10728 10729
10312 10312 10311 10311 10310 10311 10313 10315 10317 10320 10323 10327 10330 10333 10339 10343 10347 10353 10362 10374 10390 10397 10400 10409 10418 10424 10438 10454 10465 10477 10486 10493 10502 10514 10526 10537 10549 10559 10568 10577 10586 10593 10600 10608 10616 10623 10629 10635 10640 10646 10653 10659 10663 10668 10672 10678 10686 10693 10698 10702 10704 10704 10706 10708 10710 10713 10716 10717 10718 10721 10722 10724 10724 10725 10726 10727 10726 10726 10726 10725 10725 10725 10725 10726 10726 10727
10309 10308 10307 10307 10306 10307 10309 10312 10314 10316 10318 10322 10325 10330 10335 10339 10346 10352 10361 10374 10382 10383 10390 10403 10413 10423 10438 10449 10459 10469 10476 10486 10500 10511 10521 10533 10544 10554 10563 10572 10581 10589 10597 10604 10612 10619 10626 10632 10638 10644 10650 10655 10660 10665 10669 10676 10684 10690 10695 10697 10699 10700 10702 10704 10707 10710 10711 10712 10715 10717 10719 10720 10722 10723 10724 10724 10723 10723 10722 10722 10722 10722 10723 10724 10725 10725
10305 10305 10304 10304 10305 10305 10307 10309 10311 10313 10315 10319 10324 10328 10332 10338 10345 10352 10361 10369 10372 10377 10389 10401 10409 10420 10431 10442 10456 10467 10476 10492 10504 10512 10521 10531 10540 10550 10559 10568 10577 10585 10592 10600 10609 10616 10623 10629 10635 10641 10647 10652 10657 10661 10667 10675 10682 10687 10691 10693 10694 10696 10698 10700 10703 10706 10707 10709 10712 10714 10716 10717 10719 10720 10721 10721 10721 10720 10719 10719 10719 10720 10721 10723 10724 10723
10302 10302 10302 10303 10303 10304 10305 10307 10308 10310 10314 10318 10322 10326 10330 10335 10342 10349 10356 10361 10366 10376 10387 10395 10405 10416 10429 10443 10455 10462 10473 10487 10497 10507 10518 10527 10536 10545 10554 10563 10573 10581 10588 10596 10605 10613 10620 10626 10632 10637 10643 10647 10652 10658 10665 10673 10679 10683 10686 10688 10690 10692 10694 10697 10700 10703 10704 10706 10709 10711 10713 10715 10717 10718 10718 10718 10718 10717 10716 10716 10717 10718 10720 10722 10722 10721
10301 10300 10301 10301 10302 10302 10303 10304 10306 10309 10312 10316 10319 10323 10327 10332 10337 10343 10349 10356 10367 10379 10388 10395 10405 10415 10427 10438 10445 10453 10466 10479 10489 10500 10512 10522 10531 10540 10550 10560 10569 10576 10584 10594 10603 10610 10617 10622 10628 10633 10638 10643 10649 10656 10664 10670 10675 10678 10681 10684 10687 10688 10690 10694 10697 10700 10702 10704 10706 10709 10710 10712 10714 10715 10715 10715 10715 10714 10714 10714 10715 10717 10719 10720 10720 10718
10299 10299 10299 10300 10300 10300 10301 10303 10305 10308 10312 10315 10318 10322 10326 10330 10335 10340 10349 10360 10371 10381 10388 10395 10401 10410 10421 10431 10440 10453 10467 10478 10487 10497 10507 10517 10527 10537 10548 10557 10565 10573 10582 10592 10600 10607 10613 10619 10625 10630 10635 10641 10648 10655 10661 10666 10670 10673 10676 10680 10683 10685 10688 10691 10694 10697 10699 10702 10704 10706 10708 10710 10712 10713 10713 10713 10712 10712 10712 10713 10714 10716 10718 10718 10717 10716
10299 10298 10298 10298 10298 10299 10300 10302 10305 10307 10310 10314 10318 10322 10327 10332 10337 10344 10353 10363 10372 10379 10385 10391 10398 10408 10420 10431 10442 10455 10465 10475 10484 10494 10503 10513 10523 10535 10545 10554 10562 10571 10580 10590 10597 10603 10609 10616 10622 10629 10634 10640 10646 10652 10657 10661 10665 10669 10673 10677 10679 10682 10685 10689 10692 10695 10698 10700 10702 10704 10706 10708 10710 10710 10710 10710 10710 10710 10710 10711 10713 10715 10716 10715 10715 10714
10299 10298 10298 10297 10298 10299 10301 10302 10304 10306 10309 10313 10318 10323 10328 10333 10340 10346 10353 10361 10367 10373 10379 10388 10398 10409 10419 10431 10443 10453 10462 10471 10481 10491 10500 10511 10523 10533 10542 10551 10560 10569 10578 10587 10593 10600 10607 10613 10620 10626 10632 10637 10643 10648 10652 10657 10661 10666 10670 10673 10676 10679 10683 10687 10690 10693 10695 10697 10700 10702 10704 10706 10707 10707 10708 10708 10708 10708 10709 10710 10711 10713 10713 10712 10713 10712
10299 10298 10298 10298 10299 10301 10302 10304 10306 10308 10310 10314 10318 10323 10327 10333 10339 10345 10350 10355 10361 10366 10375 10387 10398 10408 10420 10431 10441 10451 10460 10469 10479 10488 10499 10510 10521 10530 10539 10548 10558 10568 10577 10584 10590 10597 10604 10610 10616 10621 10628 10634 10639 10645 10650 10654 10659 10663 10668 10671 10673 10677 10681 10685 10688 10691 10692 10695 10697 10700 10702 10704 10705 10705 10706 10706 10706 10706 10707 10708 10710 10710 10710 10710 10711 10710
10300 10300 10300 10301 10302 10303 10305 10307 10309 10311 10313 10316 10320 10325 10330 10334 10340 10345 10348 10351 10358 10368 10379 10388 10398 10409 10420 10430 10440 10450 10460 10469 10478 10488 10499 10510 10519 10527 10537 10547 10557 10567 10575 10581 10588 10594 10600 10606 10611 10618 10624 10630 10636 10641 10646 10651 10656 10661 10665 10668 10671 10676 10680 10683 10686 10688 10690 10693 10696 10698 10700 10702 10703 10703 10704 10704 10704 10704 10705 10706 10707 10707 10707 10708 10708 10707
10302 10302 10303 10304 10305 10307 10309 10310 10313 10315 10317 10320 10324 10328 10332 10335 10339 10344 10348 10352 10362 10375 10385 10392 10401 10412 10422 10431 10440 10450 10460 10469 10479 10488 10499 10509 10519 10528 10538 10547 10556 10565 10572 10578 10584 10590 10597 10603 10609 10616 10623 10629 10634 10639 10644 10649 10655 10659 10662 10666 10670 10674 10678 10681 10684 10686 10688 10691 10694 10696 10698 10700 10701 10702 10702 10702 10702 10702 10703 10704 10704 10704 10705 10705 10706 10705
10304 10305 10306 10307 10308 10310 10312 10313 10315 10317 10320 10324 10328 10330 10333 10336 10340 10346 10352 10359 10369 10380 10389 10397 10407 10416 10426 10435 10443 10452 10461 10470 10480 10490 10500 10509 10519 10529 10538 10547 10555 10563 10569 10575 10581 10587 10594 10600 10607 10615 10621 10626 10632 10637 10642 10648 10653 10657 10660 10664 10668 10672 10676 10678 10681 10684 10686 10689 10691 10694 10696 10697 10698 10699 10699 10700 10700 10700 10700 10702 10702 10701 10702 10702 10703 10702
10308 10308 10309 10310 10311 10313 10314 10315 10317 10320 10325 10329 10333 10336 10339 10342 10346 10352 10361 10370 10377 10385 10394 10403 10413 10421 10429 10438 10447 10455 10464 10473 10482 10491 10501 10511 10520 10529 10538 10546 10554 10561 10567 10573 10579 10585 10591 10598 10606 10612 10618 10624 10629 10635 10641 10646 10651 10654 10658 10662 10666 10670 10673 10676 10679 10681 10683 10686 10689 10691 10693 10695 10696 10697 10697 10697 10697 10697 10698 10699 10699 10699 10699 10700 10700 10700
10311 10312 10312 10314 10315 10316 10318 10320 10323 10326 10330 10333 10337 10342 10346 10351 10356 10364 10373 10380 10384 10391 10401 10410 10416 10423 10431 10442 10452 10460 10469 10478 10487 10495 10503 10512 10521 10529 10538 10546 10553 10559 10566 10572 10578 10584 10591 10598 10605 10611 10617 10623 10628 10633 10639 10644 10648 10651 10655 10660 10663 10667 10671 10673 10676 10678 10681 10684 10687 10689 10690 10692 10693 10694 10695 10695 10695 10695 10696 10697 10697 10696 10696 10697 10697 10697
10315 10316 10316 10318 10320 10321 10323 10325 10328 10331 10334 10338 10343 10348 10353 10359 10367 10375 10382 10388 10393 10402 10410 10416 10421 10427 10434 10444 10454 10463 10472 10481 10491 10500 10508 10515 10522 10530 10537 10545 10551 10558 10564 10571 10577 10583 10591 10598 10605 10610 10616 10621 10626 10631 10636 10641 10645 10649 10653 10658 10661 10664 10668 10670 10673 10675 10678 10681 10684 10686 10688 10689 10691 10692 10692 10692 10692 10693 10694 10695 10694 10694 10694 10694 10694 10694
10319 10319 10319 10321 10323 10324 10327 10330 10333 10336 10340 10344 10349 10354 10360 10366 10374 10381 10388 10396 10404 10412 10417 10422 10430 10436 10439 10446 10455 10464 10474 10483 10493 10503 10511 10518 10525 10531 10538 10544 10550 10557 10563 10569 10575 10583 10590 10597 10603 10608 10614 10619 10624 10629 10634 10638 10642 10647 10651 10655 10658 10662 10664 10667 10670 10673 10676 10679 10681 10683 10685 10687 10688 10689 10690 10690 10690 10691 10692 10692 10692 10692 10692 10692 10692 10692
10321 10322 10322 10323 10325 10328 10332 10336 10340 10343 10345 10349 10354 10360 10366 10373 10380 10387 10395 10402 10410 10417 10421 10426 10434 10441 10445 10451 10459 10468 10477 10486 10494 10503 10512 10520 10527 10532 10538 10544 10549 10555 10561 10567 10574 10582 10589 10595 10601 10607 10613 10618 10623 10628 10632 10636 10641 10646 10649 10652 10656 10659 10661 10664 10667 10670 10674 10677 10679 10681 10683 10685 10686 10687 10687 10688 10688 10688 10689 10690 10690 10690 10690 10690 10689 10689
10324 10324 10325 10327 10329 10334 10338 10341 10344 10347 10349 10352 10357 10364 10370 10376 10383 10391 10398 10405 10411 10417 10424 10430 10436 10443 10451 10457 10464 10471 10479 10487 10495 10503 10512 10519 10526 10531 10537 10543 10549 10554 10561 10568 10574 10581 10587 10594 10599 10605 10611 10616 10621 10626 10630 10635 10639 10644 10647 10650 10653 10655 10658 10662 10665 10668 10671 10674 10677 10679 10681 10683 10684 10684 10685 10685 10685 10686 10687 10687 10688 10688 10688 10687 10687 10687
10327 10328 10330 10332 10335 10339 10342 10344 10346 10349 10352 10355 10361 10367 10373 10380 10386 10393 10401 10408 10413 10418 10427 10434 10439 10446 10454 10462 10469 10475 10482 10489 10496 10502 10510 10517 10523 10529 10535 10541 10547 10553 10560 10567 10573 10580 10586 10593 10599 10604 10610 10614 10619 10624 10628 10633 10637 10641 10644 10647 10650 10653 10656 10659 10663 10666 10669 10672 10674 10677 10679 10680 10681 10681 10682 10682 10683 10684 10684 10685 10685 10686 10686 10685 10684 10684
10332 10333 10335 10337 10340 10343 10345 10348 10350 10352 10354 10359 10364 10370 10377 10385 10391 10398 10405 10411 10416 10420 10428 10434 10439 10448 10458 10466 10473 10478 10483 10489 10496 10501 10507 10514 10521 10527 10534 10539 10546 10552 10559 10565 10571 10578 10585 10591 10598 10603 10608 10612 10617 10622 10626 10630 10635 10639 10642 10645 10648 10651 10655 10658 10661 10663 10666 10669 10672 10674 10676 10677 10678 10678 10679 10679 10680 10681 10681 10682 10683 10683 10683 10683 10682 10681
10337 10338 10340 10342 10344 10346 10349 10352 10354 10357 10360 10364 10369 10374 10381 10388 10395 10403 10409 10414 10417 10423 10431 10438 10444 10453 10464 10470 10474 10479 10483 10489 10495 10500 10506 10513 10520 10526 10532 10538 10545 10552 10559 10565 10571 10578 10585 10591 10597 10601 10606 10611 10616 10620 10624 10629 10633 10637 10640 10643 10646 10650 10653 10656 10659 10661 10664 10666 10669 10671 10673 10674 10675 10675 10676 10676 10677 10678 10679 10679 10680 10681 10681 10680 10680 10679
10341 10342 10344 10346 10348 10350 10353 10356 10360 10363 10366 10371 10375 10379 10385 10391 10398 10405 10411 10415 10419 10425 10432 10440 10449 10458 10466 10471 10474 10480 10485 10488 10494 10500 10507 10513 10520 10526 10531 10538 10546 10553 10559 10565 10571 10578 10584 10590 10594 10599 10604 10609 10614 10618 10622 10626 10631 10634 10637 10640 10644 10647 10651 10653 10656 10658 10661 10663 10665 10668 10669 10670 10671 10672 10672 10673 10674 10675 10676 10677 10678 10678 10679 10678 10678 10677
10345 10346 10348 10351 10353 10356 10360 10363 10366 10368 10370 10374 10378 10382 10387 10393 10398 10403 10409 10415 10421 10427 10432 10440 10450 10459 10466 10470 10474 10480 10486 10490 10495 10501 10508 10514 10520 10526 10533 10539 10546 10552 10559 10565 10571 10577 10583 10588 10593 10598 10603 10608 10612 10616 10620 10625 10628 10632 10635 10638 10642 10645 10648 10651 10653 10655 10657 10659 10662 10664 10666 10667 10668 10669 10669 10670 10671 10673 10674 10674 10675 10675 10676 10676 10675 10675
10349 10351 10354 10357 10360 10363 10367 10371 10374 10375 10377 10381 10385 10387 10390 10394 10398 10403 10410 10416 10423 10430 10436 10442 10450 10458 10466 10470 10475 10482 10487 10493 10499 10505 10510 10516 10522 10528 10534 10540 10547 10553 10559 10566 10572 10578 10583 10588 10592 10597 10602 10606 10611 10615 10619 10623 10627 10630 10634 10637 10640 10644 10646 10648 10650 10652 10653 10656 10658 10661 10663 10665 10665 10666 10667 10667 10669 10670 10671 10671 10672 10672 10673 10673 10673 10673
10354 10356 10358 10361 10364 10368 10372 10375 10378 10380 10383 10387 10390 10391 10392 10395 10400 10405 10412 10419 10426 10433 10438 10444 10450 10459 10467 10473 10478 10484 10489 10495 10501 10508 10513 10518 10523 10528 10534 10541 10547 10554 10561 10566 10572 10577 10582 10587 10591 10596 10600 10604 10609 10613 10617 10621 10624 10628 10631 10634 10638 10641 10643 10644 10646 10648 10650 10652 10656 10658 10660 10661 10663 10663 10664 10665 10666 10667 10668 10668 10669 10669 10670 10670 10670 10670
10358 10360 10362 10364 10367 10371 10375 10378 10381 10383 10386 10389 10391 10392 10395 10399 10404 10409 10415 10422 10429 10435 10441 10448 10455 10462 10469 10476 10482 10489 10494 10498 10503 10509 10514 10519 10524 10530 10535 10541 10548 10555 10561 10567 10572 10577 10581 10585 10590 10594 10599 10603 10608 10612 10616 10619 10623 10626 10629 10632 10635 10638 10639 10641 10642 10644 10647 10650 10653 10655 10657 10659 10661 10662 10662 10663 10664 10664 10665 10665 10665 10666 10667 10667 10667 10667
10362 10363 10365 10368 10371 10374 10377 10380 10383 10386 10388 10390 10393 10396 10400 10404 10409 10414 10419 10426 10432 10438 10445 10453 10461 10467 10472 10477 10483 10489 10495 10501 10506 10510 10514 10519 10525 10531 10537 10543 10549 10555 10560 10566 10572 10576 10581 10585 10589 10594 10599 10603 10608 10611 10615 10618 10621 10624 10627 10630 10633 10635 10636 10637 10639 10642 10646 10648 10650 10652 10654 10656 10658 10659 10659 10659 10660 10661 10661 10662 10663 10663 10664 10664 10664 10664
10366 10367 10369 10372 10375 10378 10380 10383 10386 10388 10390 10392 10395 10400 10405 10410 10415 10419 10424 10430 10437 10444 10451 10458 10465 10471 10475 10479 10484 10489 10494 10500 10506 10511 10516 10521 10526 10532 10538 10544 10550 10555 10560 10566 10570 10575 10580 10584 10588 10593 10598 10602 10606 10610 10613 10616 10619 10622 10625 10628 10630 10631 10632 10634 10637 10640 10643 10645 10647 10648 10651 10653 10654 10655 10655 10655 10656 10658 10658 10659 10660 10660 10661 10661 10661 10661
10369 10371 10373 10375 10379 10382 10385 10387 10390 10392 10394 10395 10398 10403 10409 10415 10421 10424 10428 10435 10442 10449 10455 10460 10465 10471 10477 10482 10487 10490 10493 10498 10506 10513 10519 10523 10528 10533 10538 10544 10550 10555 10560 10565 10570 10574 10578 10582 10587 10591 10596 10600 10604 10608 10611 10614 10617 10620 10623 10625 10627 10627 10628 10630 10634 10637 10639 10641 10643 10645 10647 10649 10650 10651 10652 10653 10654 10655 10656 10656 10657 10657 10658 10658 10657 10657
10373 10375 10376 10379 10382 10386 10388 10390 10393 10396 10398 10399 10402 10407 10413 10419 10425 10429 10434 10439 10445 10452 10457 10461 10466 10472 10477 10481 10485 10488 10493 10500 10508 10516 10521 10526 10529 10534 10539 10544 10549 10554 10559 10564 10569 10573 10577 10581 10585 10589 10594 10598 10602 10605 10609 10612 10615 10618 10620 10622 10623 10624 10625 10628 10631 10634 10636 10638 10640 10642 10644 10645 10647 10648 10649 10651 10652 10652 10653 10653 10654 10654 10654 10653 10653 10653
10377 10379 10380 10382 10385 10388 10390 10392 10394 10397 10400 10404 10408 10413 10418 10422 10427 10433 10438 10442 10447 10454 10460 10464 10469 10474 10477 10479 10483 10488 10495 10503 10512 10519 10526 10531 10534 10536 10539 10544 10548 10553 10558 10562 10567 10571 10575 10579 10583 10587 10592 10596 10599 10603 10607 10610 10613 10615 10617 10618 10619 10621 10623 10625 10628 10630 10632 10634 10636 10638 10640 10642 10643 10645 10646 10647 10648 10648 10649 10649 10650 10650 10649 10649 10649 10649
10379 10381 10384 10386 10388 10390 10393 10395 10397 10400 10404 10408 10413 10418 10422 10426 10431 10437 10442 10446 10450 10456 10462 10467 10472 10476 10479 10483 10488 10493 10499 10506 10514 10522 10530 10536 10539 10539 10540 10543 10547 10551 10556 10561 10565 10570 10574 10578 10582 10586 10590 10594 10598 10601 10604 10607 10610 10612 10613 10614 10616 10617 10620 10622 10624 10626 10628 10630 10632 10634 10635 10637 10639 10640 10642 10643 10643 10644 10644 10645 10646 10646 10646 10645 10645 10645
10382 10384 10386 10389 10391 10394 10396 10398 10402 10405 10407 10411 10417 10421 10425 10430 10435 10441 10446 10451 10454 10458 10462 10468 10473 10477 10481 10487 10492 10498 10503 10508 10514 10520 10526 10531 10536 10538 10540 10543 10546 10550 10554 10559 10563 10568 10572 10576 10580 10584 10588 10592 10595 10598 10601 10604 10606 10608 10609 10610 10612 10613 10615 10617 10619 10621 10624 10626 10627 10629 10631 10633 10635 10637 10638 10639 10640 10640 10641 10641 10642 10642 10642 10641 10641 10641
10385 10387 10389 10391 10394 10396 10398 10402 10406 10409 10411 10415 10420 10425 10429 10433 10438 10444 10449 10455 10459 10461 10465 10469 10474 10478 10483 10487 10493 10499 10504 10508 10512 10516 10520 10524 10530 10535 10540 10543 10546 10550 10553 10557 10561 10565 10569 10574 10578 10581 10585 10589 10592 10595 10597 10600 10602 10604 10605 10606 10607 10609 10611 10612 10614 10617 10619 10621 10623 10626 10628 10630 10632 10633 10634 10635 10636 10637 10637 10637 10637 10637 10636 10636 10636 10636
10388 10390 10392 10394 10396 10398 10401 10405 10409 10411 10414 10418 10423 10428 10432 10436 10440 10445 10451 10457 10462 10465 10468 10472 10476 10480 10484 10488 10493 10498 10504 10508 10512 10515 10518 10522 10527 10533 10538 10542 10546 10549 10553 10556 10560 10564 10567 10571 10575 10578 10582 10585 10588 10591 10594 10596 10598 10600 10601 10602 10604 10605 10606 10608 10611 10614 10616 10618 10621 10623 10625 10626 10628 10630 10631 10632 10632 10633 10633 10632 10632 10631 10631 10631 10631 10631
10391 10393 10395 10397 10399 10401 10404 10407 10410 10412 10415 10421 10426 10430 10433 10438 10442 10447 10452 10456 10459 10464 10469 10473 10476 10480 10484 10488 10493 10497 10502 10507 10511 10514 10518 10522 10526 10530 10535 10539 10543 10547 10550 10554 10558 10561 10565 10568 10571 10575 10578 10582 10584 10587 10589 10592 10594 10595 10597 10598 10600 10601 10602 10605 10608 10611 10613 10616 10618 10620 10621 10623 10624 10626 10627 10627 10627 10627 10627 10627 10627 10626 10626 10626 10626 10626
10395 10396 10398 10400 10402 10404 10406 10409 10411 10414 10418 10423 10427 10430 10434 10439 10443 10448 10451 10454 10458 10462 10466 10470 10474 10479 10483 10487 10491 10496 10501 10506 10509 10513 10517 10522 10526 10529 10533 10536 10540 10544 10548 10551 10555 10558 10561 10565 10568 10572 10575 10578 10581 10583 10585 10587 10589 10591 10593 10594 10595 10597 10599 10602 10605 10608 10610 10612 10614 10615 10617 10618 10619 10621 10622 10622 10622 10622 10622 10622 10622 10622 10622 10622 10621 10621
10399 10399 10400 10402 10404 10406 10408 10410 10413 10417 10422 10426 10429 10433 10437 10441 10444 10447 10450 10454 10459 10463 10465 10468 10473 10478 10482 10486 10491 10495 10500 10505 10508 10513 10517 10521 10525 10528 10532 10535 10538 10542 10545 10549 10552 10555 10558 10561 10565 10569 10571 10574 10577 10579 10582 10584 10586 10588 10589 10590 10592 10594 10597 10599 10602 10604 10605 10607 10609 10610 10612 10613 10614 10616 10617 10617 10617 10617 10617 10617 10617 10617 10617 10616 10616 10615
10401 10403 10403 10404 10406 10407 10410 10413 10417 10421 10424 10428 10432 10436 10440 10444 10446 10448 10451 10454 10459 10462 10464 10467 10472 10476 10480 10485 10490 10494 10498 10503 10507 10512 10516 10520 10523 10527 10530 10534 10537 10541 10544 10547 10550 10553 10555 10559 10562 10565 10567 10570 10573 10575 10578 10580 10582 10584 10585 10587 10590 10592 10594 10596 10598 10600 10601 10602 10604 10605 10606 10608 10609 10611 10613 10613 10613 10613 10612 10612 10612 10613 10612 10611 10610 10608
10401 10404 10406 10407 10408 10410 10412 10415 10419 10423 10426 10430 10434 10437 10441 10444 10447 10449 10452 10455 10458 10461 10463 10466 10470 10473 10477 10482 10487 10492 10497 10501 10505 10510 10514 10518 10521 10525 10528 10532 10536 10539 10541 10544 10547 10549 10552 10555 10558 10560 10563 10566 10569 10572 10574 10576 10577 10579 10581 10583 10585 10587 10589 10591 10593 10595 10596 10596 10598 10601 10603 10604 10605 10607 10608 10609 10608 10607 10607 10607 10608 10608 10608 10606 10605 10603